Location: Unspecified
(0.0000°N, 0.0000°E)
Time: 11:24:48
(UTC+00:00)

Vanguard 1 - Pass Details

Date: 19 November 2019
Orbit: 651 x 3832 km, 34.3° (Epoch: 14 December)

Event Time Altitude Azimuth Distance (km) Brightness Sun altitude
Rises 23:56:41 0° 234° (SW) 5,968 14.2 -70.5°
Reaches altitude 10° 00:02:45 10° 215° (SW) 5,561 14.0 -70.2°
Maximum altitude 00:13:17 17° 178° (S) 5,728 14.0 -69.5°
Drops below altitude 10° 00:26:12 10° 143° (SE) 6,882 14.5 -68.2°
Sets 00:35:36 0° 125° (SE) 7,958 15.0 -67.0°
